Back to catalog

ATLAS 5 CENTAUR R/B

AliveMEO
NORAD 52942·ROCKET BODY·🇺🇸 United States

Launched Jul 1, 2022 from Cape Canaveral Space Force Station

Loading…

Next Passes (next 24 hours)

TLE

FreshSource: Space-Track

Epoch: Sep 14, 2026, 11:10 UTC

1 52942U 22073C   26257.46566236 -.00000166  00000-0  00000-0 0  9990
2 52942   4.2626  79.0670 0392449  56.4099 307.6259  0.92487881 11727

Track ATLAS 5 CENTAUR R/B in real time with AllMySat

Download on the App Store